Regional Weather Roundup
Issued by NWS

Home | Current Version | Previous Version | Graphics & Text | Print | Product List | Glossary Off
Versions: 1 2 3 4 5 6 7 8 9 10 11 12 13 14 15 16 17 18 19 20 21 22 23 24 25 26 27 28 29 30 31 32 33 34 35 36 37 38 39 40 41 42 43 44 45 46 47 48 49 50

000
ASUS43 KDMX 291207
RWRIA

WEATHER ROUNDUP FOR IOWA
NATIONAL WEATHER SERVICE DES MOINES IA
700 AM CDT TUE JUL 29 2014

NOTE: "FAIR" INDICATES FEW OR NO CLOUDS BELOW 12,000 FEET WITH NO
SIGNIFICANT WEATHER AND/OR OBSTRUCTIONS TO VISIBILITY.

* - THESE STATIONS ARE NOT NWS STATIONS...THUS NOT UNDER NWS
QUALITY CONTROL.  THEY ALSO DO NOT REPORT WEATHER SUCH
AS PRECIPITATION OR FOG.

IAZ001>003-012>014-020>022-031>034-043>046-291300-
   NORTHWEST IOWA

CITY           SKY/WX    TMP DP  RH WIND       PRES   REMARKS
CARROLL *      CLEAR     52  52 100 W5        30.18S
CHEROKEE *       N/A     49  49 100 CALM      30.20R FOG
DENISON *      FOG       52  52 100 CALM      30.18R VSB 1/2
LE MARS *      CLEAR     50  50 100 CALM      30.22R
ORANGE CITY *  CLEAR     54  50  87 N3        30.21R
SHELDON *      CLEAR     48  48 100 NW3       30.20R
SIOUX CITY     CLEAR     54  53  97 W5        30.21R FOG
6HR MIN TEMP:  52; 6HR MAX TEMP:  62;

SPENCER        CLEAR     50  48  93 W3        30.19S
6HR MIN TEMP:  47; 6HR MAX TEMP:  52;

STORM LAKE *   CLEAR     55  54  94 N7        30.20R
$$

IAZ055>058-069>071-079>083-090>094-291300-
   SOUTHWEST IOWA

CITY           SKY/WX    TMP DP  RH WIND       PRES   REMARKS
ATLANTIC *     MOCLDY    52  52 100 CALM      30.18R
AUDUBON *      CLEAR     54  52  94 CALM      30.19S
CLARINDA *     FOG       54  54 100 CALM      30.21R VSB 1/4
COUNCIL BLFS * CLEAR     57  57 100 NW5       30.19S
CRESTON *      CLEAR     59  54  82 N7        30.18R
HARLAN  *      PTCLDY    52  52 100 CALM      30.23R FOG
LAMONI         CLEAR     57  55  93 NW3       30.17R
6HR MIN TEMP:  56; 6HR MAX TEMP:  61;

RED OAK *      CLEAR     55  54  94 CALM      30.20R
SHENANDOAH *   FOG       52  52 100 SW6       30.20S VSB 1/4
$$

IAZ047>049-059>061-072>074-084-291300-
   CENTRAL IOWA

CITY           SKY/WX    TMP DP  RH WIND       PRES   REMARKS
AMES           LGT RAIN  56  54  93 CALM      30.16R
6HR MIN TEMP:  54; 6HR MAX TEMP:  59; 6HR PCP: TRACE;

ANKENY *       CLEAR     55  54  94 CALM      30.16S
CHARITON *     CLEAR     55  55 100 W5        30.16R
DES MOINES     CLEAR     59  55  87 NW3       30.15S
6HR MIN TEMP:  57; 6HR MAX TEMP:  63;

GRINNELL*      CLEAR     55  54  94 NW5       30.16R
KNOXVILLE *    CLEAR     57  55  94 W6        30.14S
MARSHALLTOWN   CLEAR     55  53  93 W7        30.14S
6HR MIN TEMP:  53; 6HR MAX TEMP:  57;

PELLA *        CLEAR     56  55  97 CALM      30.16R
PERRY *          N/A     54  54 100 NW3       30.17S
$$

IAZ004>006-015-016-023>025-035-036-291300-
   NORTH CENTRAL IOWA

CITY           SKY/WX    TMP DP  RH WIND       PRES   REMARKS
ALGONA *       CLEAR     55  54  94 NW7       30.18R
CLARION *      CLEAR     54  54 100 NW5       30.17R
ESTHERVILLE    CLEAR     54  52  93 NW7       30.18S
6HR MIN TEMP:  53; 6HR MAX TEMP:  56;

FORT DODGE *   CLEAR     54  52  94 NW5       30.18S
MASON CITY     CLEAR     55  54  96 NW6       30.17R
6HR MIN TEMP:  52; 6HR MAX TEMP:  56;

FOREST CITY *  CLEAR     55  54  94 E5        30.16S
IOWA FALLS *     N/A     55  54  94 W5        30.17R
$$

IAZ007>011-017>019-026>030-037>042-050>054-066-291300-
   NORTHEAST IOWA

CITY           SKY/WX    TMP DP  RH WIND       PRES   REMARKS
CEDAR RAPIDS   CLEAR     54  52  93 W3        30.12R
6HR MIN TEMP:  52; 6HR MAX TEMP:  58;

CHARLES CITY * CLEAR     54  54 100 NW3       30.14
CLINTON *      SUNNY     54  50  87 W5        30.13R
DECORAH *      SUNNY     55  54  94 CALM      30.12R
DUBUQUE        SUNNY     55  53  93 CALM      30.11R
6HR MIN TEMP:  52; 6HR MAX TEMP:  57;

MONTICELLO *   SUNNY     52  52 100 CALM      30.11S
OELWEIN *      SUNNY     54  52  94 NW5       30.13S
WATERLOO       CLEAR     56  53  90 W5        30.13R
6HR MIN TEMP:  54; 6HR MAX TEMP:  58;

$$

IAZ064-065-067-068-078-291300-
   EAST CENTRAL IOWA

CITY           SKY/WX    TMP DP  RH WIND       PRES   REMARKS
DAVENPORT      SUNNY     53  51  93 W5        30.12R
6HR MIN TEMP:  50; 6HR MAX TEMP:  53;

IOWA CITY      SUNNY     57  55  93 CALM      30.14R
6HR MIN TEMP:  56; 6HR MAX TEMP:  60;

MT. PLEASANT * CLEAR     58  56  95 CALM      30.14R
MUSCATINE *    SUNNY     59  55  88 CALM      30.13R
QUAD CITIES    SUNNY     56  53  90 W5        30.11R
6HR MIN TEMP:  51; 6HR MAX TEMP:  56;

$$

IAZ062-063-075>077-085>089-095>099-291300-
   SOUTHEAST IOWA

CITY           SKY/WX    TMP DP  RH WIND       PRES   REMARKS
BURLINGTON     SUNNY     57  56  96 CALM      30.13R
6HR MIN TEMP:  53; 6HR MAX TEMP:  59;

FAIRFIELD *    CLEAR     57  55  94 NW5       30.14S
KEOKUK *       CLEAR     57  57 100 W3        30.13S
OSKALOOSA *      N/A     55  54  98 NW7       30.15R
CENTERVILLE *  CLEAR     55  55 100 W5        30.17S
OTTUMWA        CLEAR     57  55  93 NW6       30.14S
6HR MIN TEMP:  55; 6HR MAX TEMP:  58;

WASHINGTON *   CLEAR     57  55  94 NW6       30.14R
$$

ABBREVIATIONS USED IN REMARKS
   TC - TEMPERATURES IN CELSIUS
  WCI - WIND CHILL INDEX
   HX - HEAT INDEX
  VSB - VISIBILITY
$$




USA.gov is the U.S. government's official web portal to all federal, state and local government web resources and services.